Location: Unspecified
(51.0000°N, 12.0000°E)
Time: 19:11:41
(UTC+01:00)

ISS - Pass Details

Date: 08 January 2018
Orbit: 402 x 407 km, 51.6° (Epoch: 17 January)

Event Time Altitude Azimuth Distance (km) Brightness Sun altitude
Exits shadow 05:06:35 18° 81° (E) 1,075 -0.9 -28.3°
Drops below altitude 10° 05:07:34 10° 83° (E) 1,469 -0.1 -28.2°
Sets 05:09:39 0° 85° (E) 2,331 1.3 -27.8°
